Location: Newark
(41.0400°S, 62.7845°W)
Time: 00:24:53
(UTC+00:00)

Vanguard 2 - Pass Details

Date: 04 December 2021
Orbit: 554 x 2935 km, 32.9° (Epoch: 27 January)

Event Time Altitude Azimuth Distance (km) Brightness Sun altitude
Exits shadow 04:51:01 24° 313° (NW) 4,658 11.0 -25.7°
Maximum altitude 05:02:33 54° 15° (NNE) 3,063 10.1 -25.1°
Drops below altitude 10° 05:15:26 10° 87° (E) 4,494 11.6 -24.4°
Sets 05:18:31 0° 91° (E) 5,211 12.0 -24.2°
